Temp_Advection
nan nan nan nan nan nan nan nan nan nan nan nan nan nan nan nan nan nan nan nan nan nan nan nan nan nan nan nan nan nan nan nan nan nan nan nan nan nan nan nan nan nan nan nan
nan -1 -1 -0 -0 -0 0 -0 0 0 0 0 0 -0 0 0 -0 -1 -0 -0 -1 -0 -0 0 -0 -0 -0 -0 -0 -0 -0 -1 -0 0 0 0 -0 -0 -0 0 0 -0 -0 nan
nan -0 0 0 0 0 0 -0 -0 0 -0 -0 0 -0 0 -0 -0 -0 -0 -1 -0 -1 -0 0 -0 -0 -0 -0 -0 -0 -0 0 0 0 1 0 0 -0 0 0 0 -0 -0 nan
nan -1 0 -0 0 0 0 -0 -0 0 0 0 -0 0 0 0 -0 -0 -0 0 -1 -1 0 0 -0 -0 0 -0 -0 -0 0 0 0 0 0 0 0 0 0 0 0 0 -0 nan
nan 0 0 -0 -0 0 -1 0 -0 -0 0 0 -0 -0 0 0 -1 -0 -0 -1 -1 0 -0 -1 -0 0 -0 -1 -0 -0 0 0 0 0 0 0 0 0 0 0 0 0 -0 nan
nan -0 -0 -0 -0 -0 -1 1 -0 -0 -0 0 0 0 -0 -0 0 -0 -0 -1 -1 -0 -1 -0 -0 -1 -0 -0 -0 0 0 1 1 0 0 0 0 0 -0 -0 0 0 0 nan
nan -0 0 -0 -0 0 -1 1 0 0 -0 0 0 0 -0 0 -0 -0 -0 -1 -1 -0 -0 -0 -0 0 0 -0 0 1 1 1 0 0 0 0 -0 -0 -0 0 0 0 0 nan
nan -0 0 -0 -0 -0 -0 0 0 0 0 -0 0 -0 -0 0 -0 -0 0 -0 0 0 -0 -0 1 1 0 0 1 0 0 0 0 0 0 0 0 0 0 0 0 1 0 nan
nan 0 0 -0 -0 -0 0 -0 -0 -0 0 0 -0 -0 -0 0 0 -0 -0 -0 -1 -0 0 0 1 1 1 1 1 1 0 0 0 0 1 1 1 0 0 0 0 0 0 nan
nan 0 -0 0 -0 -0 -0 -0 -0 0 0 -0 0 -0 -0 0 0 0 -0 -1 -0 -0 -0 1 1 2 2 2 1 1 1 0 0 0 1 0 0 0 0 0 0 0 0 nan
nan -0 -0 -0 0 -0 -0 0 -0 -0 0 0 0 -0 0 0 0 0 -0 -1 -0 0 0 1 1 1 1 1 1 1 1 0 0 0 0 0 0 0 0 0 0 0 0 nan
nan 0 -0 -0 -0 0 -0 -0 0 0 0 -0 0 -0 0 0 0 -0 -0 -0 0 0 1 1 0 0 0 0 0 0 0 0 0 0 0 0 0 0 0 0 0 0 0 nan
nan -0 0 -0 0 -0 0 0 -0 -0 0 -0 0 -0 -0 -0 0 0 0 -0 0 0 0 0 0 0 0 0 0 0 0 0 0 0 0 0 0 0 0 0 0 0 0 nan
nan 0 0 0 -0 -0 -0 0 0 -0 -0 -0 -0 -0 -0 0 0 0 0 0 0 -0 -0 -0 0 0 0 0 0 0 0 0 0 0 0 0 0 0 0 0 0 0 0 nan
nan 0 0 0 0 -0 -0 0 -0 -0 -0 -0 -0 -0 -0 0 0 -0 0 0 0 0 -0 -0 -0 0 0 0 0 0 0 0 0 0 0 0 0 0 0 0 0 0 0 nan
nan -0 -0 -0 0 0 0 0 0 -0 0 0 0 -0 0 -1 0 0 0 -0 -1 -1 -0 -0 -0 -0 -0 -0 0 0 0 0 0 0 0 0 0 0 0 0 0 0 0 nan
nan -0 -0 -0 -0 -0 0 0 -0 -0 -0 -0 -0 -0 -0 -0 -0 -0 0 -1 -1 -1 -0 -0 -0 -0 0 0 0 0 0 0 0 0 0 0 0 0 0 0 0 0 0 nan
nan 0 -0 0 -0 -0 -0 -0 -0 -0 -0 0 -0 -0 -0 -0 -0 -0 0 -0 -0 -1 -0 -0 0 0 0 0 0 0 0 0 0 0 0 0 0 0 0 0 1 0 0 nan
nan 0 0 0 0 -0 0 0 -0 -0 0 0 -0 -0 -0 -0 -0 -1 -0 0 0 0 0 0 0 0 0 0 0 0 0 0 0 0 0 0 0 0 0 1 0 0 0 nan
nan 0 0 -0 0 -0 0 -0 0 -0 -0 0 0 0 -0 0 0 -0 -1 0 0 0 0 0 0 0 0 1 1 1 1 0 0 0 0 0 0 0 0 1 0 0 0 nan
nan 0 0 -0 0 -0 -0 -0 0 0 -0 0 0 0 -0 -0 -0 -0 -0 0 0 0 0 0 0 0 1 1 1 1 1 1 1 1 0 0 0 0 0 0 0 1 0 nan
nan 0 0 0 0 -0 -0 0 -0 -0 -0 0 0 0 -0 -0 0 0 0 0 0 0 0 0 0 0 1 1 1 1 1 1 1 0 0 0 0 0 0 0 0 0 0 nan
nan -0 -0 -0 -0 -0 -0 -0 -0 0 -0 0 0 -0 -0 -0 -0 -0 0 0 0 0 0 0 0 0 0 1 0 1 1 1 1 0 0 0 0 0 0 0 0 0 -0 nan
nan -0 -0 0 -0 -0 -0 -0 -0 -0 -0 -0 -0 -0 0 -0 -0 -0 -0 -0 -0 -0 0 0 0 0 0 0 0 1 1 1 0 0 0 0 0 0 0 0 0 -0 -0 nan
nan -0 -0 -0 -0 -0 -0 0 0 0 0 0 0 -0 -0 0 0 -0 -0 -0 -0 -0 0 0 0 0 0 0 0 0 0 0 0 0 0 0 0 0 0 0 0 0 0 nan
nan nan nan nan nan nan nan nan nan nan nan nan nan nan nan nan nan nan nan nan nan nan nan nan nan nan nan nan nan nan nan nan nan nan nan nan nan nan nan nan nan nan nan nan
Wind_Speed
2 1 14 15 11 12 13 6 12 6 4 7 8 6 7 6 11 14 15 19 24 32 19 9 4 11 14 18 20 18 17 18 20 23 24 24 24 22 21 19 16 15 15 15
1 9 12 11 13 5 14 8 4 3 3 5 6 10 8 7 12 19 18 17 22 25 19 13 8 11 14 13 12 11 17 18 17 24 22 21 21 23 23 21 20 20 20 19
1 5 17 12 10 4 8 12 5 7 4 2 6 6 7 5 10 20 22 22 23 29 22 15 13 13 14 14 18 21 20 22 23 24 23 22 22 23 23 23 23 24 22 20
1 7 17 8 9 8 7 12 8 13 10 6 1 4 5 8 9 9 23 24 27 26 31 29 25 22 18 20 19 24 23 22 22 22 21 22 21 21 20 19 18 19 20 22
1 2 12 10 7 7 5 15 7 4 5 3 1 2 4 1 13 13 15 26 35 32 32 31 30 25 28 25 25 24 25 25 24 23 22 22 22 21 21 20 21 21 21 21
1 4 2 3 5 7 8 11 10 4 3 2 5 5 4 4 8 11 19 31 34 33 34 31 30 29 22 23 26 28 27 27 26 26 25 24 23 24 23 23 23 23 24 25
2 1 2 5 5 3 14 17 5 4 3 4 1 4 7 5 6 7 11 26 36 36 36 33 34 39 26 21 22 23 25 26 23 22 22 22 22 23 23 24 25 25 26 26
4 3 5 4 3 5 16 6 4 7 6 4 2 5 5 6 10 17 12 13 12 25 31 36 39 38 33 25 22 21 21 22 21 20 19 20 22 24 26 27 28 28 28 26
4 4 3 5 6 3 1 2 3 6 3 3 3 5 8 6 7 5 13 13 19 20 15 24 32 34 31 28 26 23 21 19 18 18 19 21 21 19 18 18 19 20 21 23
3 5 5 3 7 7 3 3 3 2 4 2 0 3 3 3 2 5 4 13 14 13 19 22 26 32 30 27 24 21 18 16 14 14 14 14 13 13 13 13 12 12 13 13
6 1 5 2 4 4 2 2 4 4 2 3 3 3 4 3 3 7 8 10 10 10 12 18 23 27 25 23 20 18 16 15 14 13 12 11 12 12 13 14 15 15 15 14
6 1 4 1 1 5 0 4 3 4 4 2 2 3 3 4 5 8 10 4 4 8 14 21 25 24 20 17 16 15 14 13 13 11 11 11 11 11 12 13 14 14 15 16
4 2 4 3 2 4 3 2 4 4 3 6 5 4 3 4 4 7 4 3 8 15 20 22 22 21 19 17 15 13 13 12 11 10 9 9 9 10 11 13 13 13 14 14
2 2 2 4 4 4 5 6 6 5 3 6 4 5 7 8 7 7 4 7 15 20 22 22 22 21 20 17 14 13 13 12 10 8 7 7 8 9 11 12 12 12 12 12
1 2 2 3 1 3 1 3 7 6 5 6 6 8 12 6 7 10 8 9 17 21 22 22 21 20 17 16 16 16 14 12 10 8 7 7 7 8 9 11 11 11 11 11
1 2 1 3 2 2 2 5 7 9 5 4 3 9 5 13 9 9 6 11 19 22 23 22 21 20 20 18 17 16 14 12 11 10 8 8 8 9 9 9 10 11 11 11
2 3 2 2 2 2 5 5 7 4 4 7 8 8 5 3 4 10 9 15 20 23 24 23 23 22 19 17 16 15 13 13 12 12 10 10 10 10 10 11 11 12 12 11
3 3 2 1 2 1 3 1 3 7 3 8 6 4 5 7 11 11 11 12 18 21 23 23 21 21 19 17 17 16 16 14 14 13 13 12 11 11 11 10 9 9 10 11
2 3 3 2 2 5 2 1 2 2 4 4 11 11 9 7 5 11 12 13 14 18 19 20 18 18 17 18 18 19 17 16 15 14 13 13 12 11 11 10 9 9 10 11
4 4 3 1 1 2 2 2 2 2 3 2 4 7 6 9 4 4 7 7 12 13 14 15 16 17 19 20 20 20 19 17 15 14 14 14 13 12 11 9 10 10 11 11
1 2 3 3 1 5 5 4 4 2 3 7 6 7 7 4 5 3 2 4 9 9 9 10 12 15 16 18 19 19 18 17 13 15 15 15 13 13 11 9 11 13 13 13
3 4 2 2 1 5 3 1 1 4 4 4 7 4 5 3 3 3 4 3 4 5 6 8 9 11 13 15 16 16 16 13 15 15 15 14 13 13 13 12 13 15 16 16
1 4 4 6 5 4 4 6 3 5 4 3 6 5 4 3 2 3 3 2 0 1 3 4 6 9 11 12 13 14 13 15 16 16 15 14 14 14 13 14 16 18 18 18
2 3 1 1 1 4 5 6 6 3 2 3 2 5 7 7 8 7 5 6 6 4 3 5 6 8 9 10 11 13 14 15 15 15 15 15 15 14 14 15 16 19 20 20
2 2 2 3 5 8 5 6 4 4 3 3 3 3 3 3 3 2 3 4 5 8 8 5 7 7 8 10 10 12 14 15 16 17 16 16 15 15 15 16 17 19 18 17
4 3 3 3 3 3 5 8 5 4 5 5 4 3 3 2 3 3 3 4 5 6 8 9 9 10 10 11 10 11 13 15 16 18 18 18 16 17 16 17 20 22 20 19
Wind_Direction
25 195 197 198 179 246 162 123 171 164 146 169 205 218 245 215 218 236 234 222 203 203 221 216 280 209 215 220 225 223 238 235 235 230 219 217 223 226 229 231 234 235 236 238
78 231 200 177 196 272 156 147 143 98 106 177 184 224 241 203 218 218 219 223 216 208 209 218 238 218 211 214 217 216 227 230 238 239 240 238 241 240 243 243 243 245 244 238
172 286 158 184 201 212 189 162 154 157 113 67 136 262 247 219 232 222 223 223 226 224 217 231 239 217 244 235 228 228 226 228 230 238 237 241 244 246 239 242 247 250 255 257
314 289 155 120 183 179 179 187 140 141 163 186 340 247 244 214 217 219 222 220 231 228 224 240 247 249 236 250 244 237 238 236 233 233 233 235 242 247 251 257 262 260 261 264
247 148 159 178 129 143 261 166 147 99 97 117 306 268 265 150 226 223 233 226 228 227 229 237 251 255 268 266 249 243 236 236 237 234 234 235 238 246 253 258 261 261 262 262
285 295 228 133 118 156 292 118 103 93 112 234 200 189 256 198 205 222 223 228 227 226 231 236 237 254 255 245 235 234 234 234 233 232 233 237 241 248 254 257 258 259 259 261
136 261 90 97 71 233 261 150 135 158 195 220 194 183 259 242 235 221 213 227 232 234 230 229 225 242 244 233 223 224 223 224 225 226 231 237 243 249 254 257 258 257 257 257
152 170 176 124 102 298 152 170 153 165 174 164 88 221 241 236 248 233 236 259 240 229 231 230 223 225 226 226 215 210 211 213 220 227 234 241 246 249 253 256 259 259 257 255
177 91 151 146 146 229 126 56 155 107 40 102 190 266 283 260 283 282 260 261 243 233 224 224 221 215 207 206 205 206 208 215 220 229 238 245 250 253 255 257 257 256 254 252
316 107 161 156 140 160 270 205 81 17 121 180 357 278 235 42 335 317 287 254 255 237 227 224 217 205 200 199 204 208 212 219 227 230 233 235 238 241 242 244 247 249 251 252
318 267 134 141 169 159 180 193 62 101 69 140 141 260 212 212 287 289 294 281 257 230 207 202 197 190 192 194 198 204 209 218 222 226 230 232 236 240 243 246 248 249 251 251
215 105 115 134 149 151 38 227 152 125 167 62 106 282 184 226 264 288 303 292 225 199 181 175 177 181 183 188 195 200 205 211 212 217 226 235 241 249 254 255 254 253 252 252
202 230 120 110 53 112 220 200 104 100 83 187 141 254 164 251 328 30 328 240 167 163 165 170 176 183 189 195 203 209 210 209 208 207 216 235 248 256 261 261 261 258 256 254
210 292 154 170 199 136 177 177 174 135 135 153 215 285 293 291 320 339 328 205 174 171 174 178 182 187 191 196 204 209 211 207 213 222 229 244 255 259 261 263 262 260 256 250
100 180 149 44 148 105 137 174 169 175 187 170 206 214 247 278 290 317 312 192 187 178 184 190 194 197 201 204 203 210 212 217 222 230 242 254 263 265 263 258 258 255 251 247
341 22 99 20 70 94 240 209 203 219 221 246 194 266 199 258 293 297 259 203 194 195 195 198 203 206 207 211 213 215 219 223 233 241 246 258 262 261 256 257 254 251 249 250
74 137 81 312 343 315 309 227 189 183 198 205 218 241 177 226 240 278 254 218 210 206 205 209 213 216 218 220 221 223 226 230 237 242 245 249 254 257 261 262 255 246 242 240
127 98 58 113 6 324 246 48 215 212 224 216 249 224 215 234 262 263 274 242 221 218 219 222 225 227 224 222 224 223 228 233 236 240 246 250 252 259 269 268 259 251 244 237
32 114 87 126 212 287 39 11 123 166 307 234 242 258 233 245 260 269 269 255 236 230 231 237 239 238 235 232 228 229 233 236 240 245 253 255 253 259 268 265 255 246 235 226
79 76 108 129 142 239 241 323 221 159 331 352 232 270 240 192 213 257 304 241 225 227 231 233 235 236 233 231 229 232 237 241 246 248 251 249 251 260 268 261 251 236 221 211
39 102 142 173 253 284 249 264 152 82 249 327 325 307 188 186 208 307 304 186 198 209 223 231 228 233 235 231 231 233 237 244 245 245 246 245 246 256 254 245 236 219 207 199
174 134 183 103 191 291 194 88 174 222 317 329 4 31 180 148 118 73 88 140 182 211 225 231 231 229 226 224 227 232 240 241 243 248 247 244 249 251 245 236 225 209 202 197
290 185 182 172 213 247 249 240 229 318 283 0 28 46 106 135 95 94 94 93 104 234 233 226 222 222 222 223 228 237 240 243 246 242 238 244 249 247 241 232 218 205 199 195
261 185 202 74 269 252 289 287 265 250 236 51 66 95 98 99 91 79 67 61 33 2 286 255 234 226 227 232 237 242 243 244 241 237 239 243 244 243 239 226 216 208 199 192
218 145 179 270 301 305 327 283 264 216 193 161 141 125 98 98 85 37 345 343 319 327 318 284 259 248 241 244 252 256 250 243 239 239 240 241 241 242 236 229 217 202 199 201
190 192 156 231 300 270 301 335 235 206 171 161 154 133 98 70 43 8 345 325 302 284 275 279 271 257 252 255 259 265 258 248 244 243 242 243 243 243 233 223 202 196 200 205
Height
1480 1480 1472 1476 1485 1482 1477 1485 1487 1491 1492 1495 1498 1501 1498 1497 1500 1500 1500 1501 1501 1507 1514 1515 1516 1520 1524 1528 1531 1534 1539 1542 1544 1546 1546 1549 1551 1555 1557 1560 1562 1564 1566 1568
1480 1475 1472 1476 1484 1481 1477 1483 1487 1491 1493 1496 1499 1499 1497 1496 1496 1496 1497 1497 1500 1504 1506 1510 1514 1519 1521 1525 1528 1532 1537 1539 1539 1540 1544 1546 1549 1551 1554 1557 1558 1560 1562 1563
1477 1472 1469 1477 1480 1484 1480 1481 1488 1488 1495 1499 1499 1500 1496 1493 1493 1495 1495 1495 1498 1500 1503 1506 1511 1514 1518 1521 1526 1529 1532 1535 1536 1539 1541 1542 1543 1546 1549 1551 1553 1555 1557 1559
1475 1470 1467 1479 1480 1486 1484 1480 1482 1489 1493 1494 1500 1499 1495 1489 1491 1491 1492 1494 1496 1498 1501 1504 1509 1511 1517 1520 1522 1525 1528 1530 1533 1537 1536 1538 1540 1543 1545 1547 1549 1551 1552 1553
1476 1470 1468 1476 1481 1486 1482 1476 1481 1490 1497 1500 1503 1501 1488 1490 1487 1489 1489 1491 1493 1497 1500 1503 1505 1508 1512 1516 1519 1522 1524 1526 1528 1531 1532 1534 1536 1539 1540 1542 1544 1545 1547 1548
1475 1473 1471 1473 1479 1484 1486 1479 1486 1493 1500 1503 1500 1498 1488 1487 1482 1480 1481 1482 1486 1491 1495 1499 1503 1505 1509 1511 1514 1517 1519 1522 1524 1526 1528 1530 1532 1535 1536 1537 1539 1540 1542 1543
1473 1471 1470 1473 1477 1484 1489 1476 1488 1499 1499 1499 1502 1502 1481 1479 1477 1476 1475 1476 1479 1483 1488 1492 1497 1498 1505 1508 1510 1513 1513 1517 1521 1522 1524 1526 1528 1530 1531 1532 1533 1535 1536 1537
1472 1480 1468 1473 1479 1475 1470 1473 1480 1488 1489 1494 1504 1495 1476 1468 1469 1471 1472 1475 1475 1477 1481 1485 1490 1496 1502 1503 1506 1509 1511 1514 1516 1518 1520 1522 1523 1524 1525 1526 1527 1528 1528 1530
1464 1463 1467 1470 1478 1483 1474 1482 1479 1492 1506 1492 1491 1489 1470 1466 1466 1470 1471 1471 1472 1474 1476 1479 1484 1491 1494 1497 1501 1506 1508 1511 1512 1513 1516 1517 1518 1519 1519 1520 1521 1522 1522 1523
1462 1464 1469 1472 1475 1480 1478 1477 1479 1490 1499 1488 1491 1489 1471 1467 1469 1469 1469 1467 1467 1468 1471 1474 1478 1484 1489 1494 1499 1501 1504 1506 1508 1509 1511 1513 1514 1515 1516 1517 1517 1517 1518 1518
1463 1459 1470 1471 1474 1472 1475 1475 1479 1482 1490 1485 1487 1477 1473 1470 1471 1469 1466 1464 1464 1465 1467 1471 1476 1483 1488 1493 1496 1500 1502 1503 1504 1506 1508 1509 1511 1513 1513 1514 1514 1514 1515 1515
1462 1459 1462 1468 1468 1471 1474 1474 1473 1482 1491 1510 1504 1477 1468 1470 1470 1468 1464 1462 1463 1465 1467 1471 1477 1484 1488 1492 1496 1498 1500 1503 1502 1503 1505 1506 1507 1508 1510 1510 1511 1511 1511 1512
1458 1460 1461 1468 1472 1472 1473 1473 1477 1483 1489 1493 1489 1480 1468 1468 1466 1466 1465 1464 1464 1467 1470 1474 1478 1482 1487 1492 1495 1497 1499 1501 1501 1502 1502 1504 1504 1504 1506 1507 1507 1507 1506 1506
1458 1460 1462 1468 1459 1461 1468 1468 1473 1478 1489 1489 1490 1476 1464 1460 1463 1462 1463 1465 1465 1467 1471 1475 1480 1484 1488 1490 1492 1495 1499 1499 1501 1500 1500 1501 1501 1501 1501 1503 1503 1503 1503 1503
1459 1463 1462 1460 1461 1462 1463 1466 1471 1480 1476 1479 1476 1477 1462 1465 1464 1462 1462 1464 1466 1467 1470 1474 1478 1482 1485 1487 1489 1494 1496 1497 1497 1497 1497 1498 1499 1499 1498 1500 1499 1500 1500 1500
1458 1461 1462 1468 1463 1461 1463 1465 1468 1469 1470 1474 1475 1473 1464 1461 1461 1461 1460 1462 1463 1466 1470 1473 1478 1481 1484 1487 1490 1492 1493 1492 1495 1495 1494 1494 1495 1496 1497 1496 1495 1495 1496 1496
1459 1464 1466 1472 1465 1464 1466 1461 1464 1463 1464 1463 1469 1456 1458 1459 1460 1460 1459 1460 1461 1464 1467 1471 1475 1478 1481 1483 1486 1487 1489 1489 1491 1492 1492 1492 1493 1494 1493 1492 1491 1491 1492 1494
1461 1463 1467 1472 1469 1473 1457 1456 1457 1458 1459 1459 1457 1456 1455 1455 1457 1457 1456 1456 1458 1462 1466 1469 1473 1476 1478 1480 1482 1484 1485 1487 1489 1489 1489 1489 1489 1491 1489 1488 1488 1488 1488 1490
1458 1462 1470 1470 1474 1463 1456 1457 1457 1457 1453 1453 1453 1452 1453 1455 1455 1453 1453 1452 1454 1459 1463 1467 1470 1472 1475 1477 1479 1480 1482 1483 1484 1485 1485 1486 1487 1486 1485 1485 1484 1485 1487 1489
1463 1463 1466 1476 1476 1464 1457 1456 1454 1456 1458 1453 1453 1450 1450 1452 1455 1452 1449 1448 1452 1456 1460 1463 1465 1468 1470 1472 1474 1476 1477 1479 1480 1482 1482 1483 1483 1482 1481 1481 1482 1483 1487 1488
1466 1462 1467 1465 1470 1467 1459 1455 1455 1458 1462 1452 1451 1449 1448 1451 1450 1449 1447 1448 1452 1455 1457 1459 1461 1464 1466 1468 1470 1472 1474 1475 1477 1478 1478 1478 1478 1479 1479 1479 1481 1483 1485 1486
1466 1470 1470 1466 1468 1477 1454 1455 1456 1456 1452 1451 1449 1448 1449 1449 1449 1449 1449 1451 1453 1455 1456 1457 1458 1460 1462 1464 1467 1468 1470 1472 1472 1473 1473 1474 1475 1475 1476 1477 1479 1480 1482 1485
1465 1464 1464 1465 1464 1453 1453 1452 1452 1452 1451 1450 1450 1449 1449 1450 1451 1451 1452 1453 1454 1454 1455 1456 1457 1459 1460 1462 1464 1465 1467 1467 1468 1469 1470 1471 1472 1473 1473 1474 1476 1478 1479 1483
1457 1458 1459 1458 1453 1451 1450 1450 1450 1450 1451 1451 1451 1451 1451 1452 1452 1453 1454 1454 1454 1454 1454 1455 1456 1457 1459 1460 1461 1462 1463 1464 1464 1465 1466 1467 1468 1470 1470 1471 1473 1475 1478 1480
1457 1457 1457 1457 1451 1449 1449 1449 1450 1450 1451 1451 1452 1452 1453 1453 1453 1454 1454 1453 1453 1454 1454 1454 1455 1455 1456 1457 1458 1458 1459 1460 1461 1462 1462 1463 1465 1466 1467 1468 1470 1473 1477 1480
1454 1454 1457 1456 1453 1452 1450 1450 1450 1451 1451 1452 1453 1453 1453 1454 1453 1453 1453 1453 1453 1453 1452 1452 1452 1453 1453 1453 1454 1455 1455 1456 1457 1458 1458 1459 1461 1462 1464 1465 1468 1470 1474 1477